Regional Weather Roundup
Issued by NWS

Home | Current Version | Previous Version | Text Only | Print | Product List | Glossary Off
Versions: 1 2 3 4 5 6 7 8 9 10 11 12 13 14 15 16 17 18 19 20 21 22 23 24 25 26 27 28 29 30 31 32 33 34 35 36 37 38 39 40 41 42 43 44 45 46 47 48 49 50

000
ASUS43 KLSX 260510
RWRMO

WEATHER SUMMARY FOR MISSOURI
NATIONAL WEATHER SERVICE SPRINGFIELD MO
1200 AM CDT MON JUN 26 2017

NOTE: "FAIR" INDICATES FEW OR NO CLOUDS BELOW 12,000 FEET WITH NO
       SIGNIFICANT WEATHER AND/OR OBSTRUCTIONS TO VISIBILITY.
       CURRENT SKY AND/OR WEATHER CONDITIONS ARE NOT AVAILABLE FOR
       CHILLICOTHE AND FARMINGTON.

MOZ001>031-035>038-043-044-053-054-260600-
...NORTHERN AND WESTERN MISSOURI...

CITY           SKY/WX    TMP DP  RH WIND       PRES   REMARKS
KANSAS CTY INT CLEAR     57  53  86 CALM      30.24S
KANSAS C DTWN  CLEAR     60  52  74 CALM      30.24R
LEE`S SUMMIT   CLEAR     59  51  75 W3        30.25R
ST JOSEPH      CLEAR     57  54  89 SW5       30.24S
CHILLICOTHE      N/A     55  51  86 CALM      30.24R
KIRKSVILLE     CLEAR     53  50  89 NW3       30.22R

$$
MOZ066>068-077>081-088>096-101>105-260600-
...SOUTHWEST MISSOURI...

CITY           SKY/WX    TMP DP  RH WIND       PRES   REMARKS
SPRINGFIELD    MOCLDY    70  56  61 CALM      30.23S
JOPLIN         CLOUDY    68  57  68 CALM      30.24R
BRANSON          N/A     68  57  68 CALM      30.24S

$$
MOZ032>034-039>042-045>050-055>058-069>072-260600-
...CENTRAL MISSOURI...

CITY           SKY/WX    TMP DP  RH WIND       PRES   REMARKS
COLUMBIA       CLEAR     61  51  70 W5        30.22S
JEFFERSON CITY CLEAR     64  52  64 N3        30.22R
ROLLA          CLOUDY    64  50  60 NW6       30.22S
SEDALIA        CLEAR     58  54  86 NW5       30.24R
WHITEMAN AFB   CLEAR     55  55 100 SW6       30.22S
WARRENSBURG    CLEAR     55  50  82 W5        30.23S
OSAGE BEACH    CLOUDY    65  51  60 CALM      30.23S

$$
MOZ051-052-059>065-260600-
...EAST CENTRAL MISSOURI...

CITY           SKY/WX    TMP DP  RH WIND       PRES   REMARKS
ST LOUIS INTL  CLEAR     67  48  50 CALM      30.20R
SPIRIT OF STL  CLEAR     59  54  83 CALM      30.19R
ST CHARLES     CLEAR     62  50  64 CALM      30.19R

$$
MOZ072>076-082>087-097>100-106>115-260600-
...SOUTH CENTRAL AND SOUTHEAST MISSOURI...

CITY           SKY/WX    TMP DP  RH WIND       PRES   REMARKS
CAPE GIRARDEAU CLEAR     66  58  75 SW3       30.17S
FARMINGTON     CLOUDY    69  53  56 CALM      30.22R
POPLAR BLUFF   PTCLDY    67  65  93 CALM      30.18S
WEST PLAINS    CLEAR     66  54  65 N5        30.24R

$$




USA.gov is the U.S. government's official web portal to all federal, state and local government web resources and services.